| time (UTC) | temp F | wind direction | speed knots | gust knots | rain 1hr in | rain 24hr in | rain mn in | humidity % | barometer mb |
| 20260507100017 | 61 | 113 | 5.2 | 9.6 | 0.00 | 0.00 | 0.00 | 64 | 1016.3 |
| 20260507095017 | 62 | 135 | 4.3 | 12.2 | 0.00 | 0.00 | 0.00 | 62 | 1016.2 |
| 20260507094017 | 62 | 135 | 5.2 | 11.3 | 0.00 | 0.00 | 0.00 | 63 | 1016.3 |
| 20260507093017 | 61 | 135 | 5.2 | 10.4 | 0.00 | 0.00 | 0.00 | 64 | 1016.2 |
| 20260507092017 | 61 | 135 | 5.2 | 9.6 | 0.00 | 0.00 | 0.00 | 66 | 1016.2 |
| 20260507091018 | 60 | 135 | 5.2 | 10.4 | 0.00 | 0.00 | 0.00 | 66 | 1016.2 |
| 20260507090018 | 60 | 113 | 3.5 | 7.8 | 0.00 | 0.00 | 0.00 | 68 | 1016.2 |
| 20260507085017 | 60 | 135 | 4.3 | 7.8 | 0.00 | 0.00 | 0.00 | 68 | 1016.2 |
| 20260507084017 | 60 | 135 | 5.2 | 9.6 | 0.00 | 0.00 | 0.00 | 68 | 1016.2 |
| 20260507083017 | 59 | 135 | 5.2 | 8.7 | 0.00 | 0.00 | 0.00 | 70 | 1016.2 |
| 20260507082017 | 58 | 135 | 4.3 | 7.8 | 0.00 | 0.00 | 0.00 | 72 | 1016.2 |
| 20260507081017 | 58 | 135 | 3.5 | 9.6 | 0.00 | 0.00 | 0.00 | 73 | 1016.1 |
| 20260507080017 | 58 | 135 | 5.2 | 9.6 | 0.00 | 0.00 | 0.00 | 73 | 1016.1 |
| 20260507075018 | 58 | 135 | 3.5 | 7.8 | 0.00 | 0.00 | 0.00 | 73 | 1016.1 |
| 20260507074037 | 59 | 135 | 4.3 | 8.7 | 0.00 | 0.00 | 0.00 | 72 | 1016.0 |
| 20260507073017 | 58 | 113 | 2.6 | 5.2 | 0.00 | 0.00 | 0.00 | 74 | 1016.0 |
| 20260507072018 | 56 | 135 | 1.7 | 7.0 | 0.00 | 0.00 | 0.00 | 78 | 1016.0 |
| 20260507071017 | 55 | 113 | 2.6 | 6.1 | 0.00 | 0.00 | 0.00 | 81 | 1015.9 |
| 20260507070018 | 53 | 113 | 2.6 | 4.3 | 0.00 | 0.00 | 0.00 | 85 | 1015.8 |
| 20260507065017 | 51 | 113 | 2.6 | 6.1 | 0.00 | 0.00 | 0.00 | 89 | 1015.9 |
| 20260507064017 | 49 | 90 | 1.7 | 3.5 | 0.00 | 0.00 | 0.00 | 92 | 1015.8 |
| 20260507063018 | 47 | 90 | 1.7 | 3.5 | 0.00 | 0.00 | 0.00 | 93 | 1015.8 |
| 20260507062016 | 46 | 68 | 1.7 | 4.3 | 0.00 | 0.00 | 0.00 | 92 | 1015.7 |
| 20260507061017 | 45 | 90 | 0.9 | 1.7 | 0.00 | 0.00 | 0.00 | 92 | 1015.7 |
| 20260507060018 | 44 | 0.0 | 0.0 | 0.00 | 0.00 | 0.00 | 92 | 1015.6 | |
| 20260507055041 | 44 | 45 | 0.9 | 1.7 | 0.00 | 0.00 | 0.00 | 91 | 1015.6 |
| 20260507054016 | 43 | 0.0 | 0.0 | 0.00 | 0.00 | 0.00 | 91 | 1015.5 | |
| 20260507053018 | 43 | 0.0 | 0.0 | 0.00 | 0.00 | 0.00 | 91 | 1015.5 | |
| 20260507052016 | 43 | 0.0 | 0.0 | 0.00 | 0.00 | 0.00 | 91 | 1015.5 | |
| 20260507051016 | 43 | 0.0 | 0.0 | 0.00 | 0.00 | 0.00 | 90 | 1015.4 | |
| 20260507050018 | 42 | 45 | 0.9 | 2.6 | 0.00 | 0.00 | 0.00 | 90 | 1015.3 |
| 20260507045018 | 43 | 23 | 0.9 | 2.6 | 0.00 | 0.00 | 0.00 | 90 | 1015.3 |
| 20260507044016 | 43 | 45 | 0.9 | 1.7 | 0.00 | 0.00 | 0.00 | 90 | 1015.3 |
| 20260507043036 | 43 | 23 | 1.7 | 3.5 | 0.00 | 0.00 | 0.00 | 89 | 1015.3 |
| 20260507042016 | 43 | 45 | 1.7 | 3.5 | 0.00 | 0.00 | 0.00 | 89 | 1015.2 |
| 20260507041016 | 43 | 45 | 1.7 | 2.6 | 0.00 | 0.00 | 0.00 | 89 | 1015.2 |
| 20260507040016 | 43 | 45 | 1.7 | 3.5 | 0.00 | 0.00 | 0.00 | 89 | 1015.1 |
| 20260507035016 | 43 | 45 | 1.7 | 2.6 | 0.00 | 0.00 | 0.00 | 89 | 1015.2 |
| 20260507034036 | 43 | 45 | 1.7 | 2.6 | 0.00 | 0.00 | 0.00 | 89 | 1015.2 |
| 20260507033016 | 44 | 23 | 1.7 | 3.5 | 0.00 | 0.00 | 0.00 | 88 | 1015.1 |
| 20260507032016 | 44 | 45 | 1.7 | 2.6 | 0.00 | 0.00 | 0.00 | 88 | 1015.1 |
| 20260507031016 | 44 | 45 | 0.9 | 2.6 | 0.00 | 0.00 | 0.00 | 88 | 1015.1 |
| 20260507030038 | 44 | 23 | 0.9 | 2.6 | 0.00 | 0.00 | 0.00 | 88 | 1015.1 |
| 20260507025016 | 44 | 45 | 1.7 | 2.6 | 0.00 | 0.00 | 0.00 | 88 | 1015.0 |
| 20260507024016 | 45 | 45 | 1.7 | 3.5 | 0.00 | 0.00 | 0.00 | 88 | 1015.0 |
| 20260507023018 | 45 | 23 | 0.9 | 2.6 | 0.00 | 0.00 | 0.00 | 88 | 1014.9 |
| 20260507022016 | 45 | 0.0 | 1.7 | 0.00 | 0.00 | 0.00 | 88 | 1014.9 | |
| 20260507021038 | 45 | 23 | 0.9 | 2.6 | 0.00 | 0.00 | 0.00 | 88 | 1014.9 |
| 20260507020016 | 45 | 0.0 | 0.0 | 0.00 | 0.00 | 0.00 | 87 | 1014.8 | |
| 20260507015016 | 45 | 0.0 | 0.0 | 0.00 | 0.00 | 0.00 | 87 | 1014.7 | |
| 20260507014036 | 45 | 0.0 | 0.0 | 0.00 | 0.00 | 0.00 | 86 | 1014.8 | |
| 20260507013016 | 45 | 0.0 | 0.0 | 0.00 | 0.00 | 0.00 | 86 | 1014.8 | |
| 20260507012018 | 46 | 0.0 | 0.0 | 0.00 | 0.00 | 0.00 | 86 | 1014.8 | |
| 20260507010018 | 46 | 0.0 | 0.0 | 0.00 | 0.00 | 0.00 | 86 | 1014.8 | |
| 20260507005021 | 46 | 0.0 | 0.0 | 0.00 | 0.00 | 0.00 | 85 | 1014.9 | |
| 20260507004016 | 46 | 0.0 | 0.0 | 0.00 | 0.00 | 0.00 | 84 | 1014.8 | |
| 20260507003016 | 47 | 0.0 | 0.0 | 0.00 | 0.00 | 0.00 | 83 | 1014.8 | |
| 20260507002057 | 47 | 0.0 | 0.0 | 0.00 | 0.00 | 0.00 | 83 | 1014.8 | |
| 20260507001017 | 47 | 0.0 | 0.0 | 0.00 | 0.00 | 0.00 | 82 | 1014.9 | |
| 20260507000018 | 48 | 0.0 | 0.0 | 0.00 | 0.00 | 0.00 | 80 | 1015.0 | |
| 20260506235016 | 48 | 0.0 | 0.0 | 0.00 | 0.00 | 0.00 | 79 | 1014.9 | |
| 20260506234017 | 49 | 0.0 | 0.0 | 0.00 | 0.00 | 0.00 | 79 | 1014.9 | |
| 20260506233017 | 49 | 0.0 | 0.0 | 0.00 | 0.00 | 0.00 | 77 | 1014.8 | |
| 20260506232016 | 50 | 0.0 | 0.0 | 0.00 | 0.00 | 0.00 | 76 | 1014.7 | |
| 20260506231017 | 51 | 0.0 | 0.0 | 0.00 | 0.00 | 0.00 | 75 | 1014.7 | |
| 20260506230016 | 51 | 0.0 | 0.0 | 0.00 | 0.00 | 0.00 | 75 | 1014.6 | |
| 20260506225016 | 52 | 0.0 | 0.0 | 0.00 | 0.00 | 0.00 | 74 | 1014.5 | |
| 20260506224017 | 52 | 0.0 | 0.0 | 0.00 | 0.00 | 0.00 | 74 | 1014.6 | |
| 20260506223018 | 52 | 0.0 | 0.0 | 0.00 | 0.00 | 0.00 | 73 | 1014.7 | |
| 20260506222037 | 53 | 0.0 | 0.0 | 0.00 | 0.00 | 0.00 | 73 | 1014.6 | |
| 20260506221016 | 53 | 0.0 | 0.0 | 0.00 | 0.00 | 0.00 | 72 | 1014.5 | |
| 20260506220016 | 53 | 0.0 | 0.0 | 0.00 | 0.00 | 0.00 | 72 | 1014.5 | |
| 20260506215017 | 53 | 0.0 | 0.0 | 0.00 | 0.00 | 0.00 | 72 | 1014.5 | |
| 20260506214017 | 54 | 0.0 | 2.6 | 0.00 | 0.00 | 0.00 | 72 | 1014.5 | |
| 20260506213015 | 54 | 23 | 0.9 | 2.6 | 0.00 | 0.00 | 0.00 | 71 | 1014.5 |
| 20260506212100 | 54 | 0.0 | 1.7 | 0.00 | 0.00 | 0.00 | 71 | 1014.4 | |
| 20260506211017 | 54 | 0.0 | 0.9 | 0.00 | 0.00 | 0.00 | 71 | 1014.3 | |
| 20260506210016 | 54 | 0.0 | 0.0 | 0.00 | 0.00 | 0.00 | 70 | 1014.3 | |
| 20260506205016 | 55 | 0.0 | 0.0 | 0.00 | 0.00 | 0.00 | 70 | 1014.1 | |
| 20260506204015 | 55 | 0.0 | 0.0 | 0.00 | 0.00 | 0.00 | 69 | 1014.1 | |
| 20260506203017 | 55 | 0.0 | 0.0 | 0.00 | 0.00 | 0.00 | 68 | 1014.1 | |
| 20260506202016 | 55 | 0.0 | 0.0 | 0.00 | 0.00 | 0.00 | 66 | 1014.0 | |
| 20260506201015 | 55 | 0.0 | 1.7 | 0.00 | 0.00 | 0.00 | 66 | 1013.9 | |
| 20260506200036 | 56 | 0.0 | 1.7 | 0.00 | 0.00 | 0.00 | 66 | 1013.9 | |
| 20260506195016 | 56 | 45 | 0.9 | 2.6 | 0.00 | 0.00 | 0.00 | 65 | 1013.8 |
| 20260506194019 | 56 | 45 | 0.9 | 2.6 | 0.00 | 0.00 | 0.00 | 64 | 1013.6 |
| 20260506193015 | 56 | 45 | 0.9 | 2.6 | 0.00 | 0.00 | 0.00 | 63 | 1013.4 |
| 20260506192016 | 57 | 45 | 0.9 | 2.6 | 0.00 | 0.00 | 0.00 | 63 | 1013.5 |
| 20260506191036 | 57 | 45 | 1.7 | 3.5 | 0.00 | 0.00 | 0.00 | 62 | 1013.4 |
| 20260506190037 | 57 | 45 | 1.7 | 6.1 | 0.00 | 0.00 | 0.00 | 62 | 1013.3 |
| 20260506185015 | 58 | 23 | 2.6 | 6.1 | 0.00 | 0.00 | 0.00 | 62 | 1013.2 |
| 20260506184015 | 58 | 23 | 2.6 | 6.1 | 0.00 | 0.00 | 0.00 | 61 | 1013.1 |
| 20260506183015 | 58 | 45 | 2.6 | 5.2 | 0.00 | 0.00 | 0.00 | 59 | 1013.1 |
| 20260506182019 | 58 | 0 | 2.6 | 6.1 | 0.00 | 0.00 | 0.00 | 56 | 1013.0 |
| 20260506181017 | 59 | 23 | 3.5 | 8.7 | 0.00 | 0.00 | 0.00 | 54 | 1013.0 |
| 20260506180019 | 59 | 45 | 4.3 | 8.7 | 0.00 | 0.00 | 0.00 | 54 | 1012.8 |
| 20260506175019 | 59 | 23 | 1.7 | 7.8 | 0.00 | 0.00 | 0.00 | 55 | 1012.7 |
| 20260506174019 | 60 | 0 | 2.6 | 7.0 | 0.00 | 0.00 | 0.00 | 54 | 1012.6 |
| 20260506173037 | 60 | 23 | 4.3 | 7.8 | 0.00 | 0.00 | 0.00 | 53 | 1012.6 |
| 20260506172039 | 60 | 45 | 3.5 | 7.0 | 0.00 | 0.00 | 0.00 | 53 | 1012.6 |
| 20260506171017 | 60 | 23 | 1.7 | 3.5 | 0.00 | 0.00 | 0.00 | 54 | 1012.5 |
| 20260506170019 | 61 | 45 | 4.3 | 7.8 | 0.00 | 0.00 | 0.00 | 52 | 1012.5 |
| 20260506165019 | 61 | 23 | 3.5 | 7.0 | 0.00 | 0.00 | 0.00 | 52 | 1012.5 |
| 20260506164019 | 61 | 45 | 3.5 | 8.7 | 0.00 | 0.00 | 0.00 | 50 | 1012.4 |
| 20260506163017 | 61 | 23 | 1.7 | 6.1 | 0.00 | 0.00 | 0.00 | 50 | 1012.4 |
| 20260506162019 | 61 | 23 | 4.3 | 9.6 | 0.00 | 0.00 | 0.00 | 51 | 1012.4 |
| 20260506161017 | 61 | 0 | 2.6 | 6.1 | 0.00 | 0.00 | 0.00 | 49 | 1012.4 |
| 20260506160019 | 61 | 0 | 1.7 | 4.3 | 0.00 | 0.00 | 0.00 | 50 | 1012.4 |
| 20260506155017 | 61 | 0 | 2.6 | 6.1 | 0.00 | 0.00 | 0.00 | 48 | 1012.5 |
| 20260506154019 | 62 | 315 | 1.7 | 4.3 | 0.00 | 0.00 | 0.00 | 49 | 1012.5 |
| 20260506153037 | 62 | 338 | 2.6 | 7.8 | 0.00 | 0.00 | 0.00 | 47 | 1012.5 |
| 20260506152017 | 62 | 0 | 1.7 | 6.1 | 0.00 | 0.00 | 0.00 | 48 | 1012.5 |
| 20260506151017 | 62 | 0 | 2.6 | 7.0 | 0.00 | 0.00 | 0.00 | 46 | 1012.5 |
| 20260506150019 | 62 | 338 | 1.7 | 7.0 | 0.00 | 0.00 | 0.00 | 48 | 1012.5 |
| 20260506145017 | 62 | 68 | 1.7 | 7.0 | 0.00 | 0.00 | 0.00 | 47 | 1012.5 |
| 20260506144037 | 62 | 0 | 3.5 | 7.0 | 0.00 | 0.00 | 0.00 | 47 | 1012.6 |
| 20260506143017 | 62 | 23 | 2.6 | 7.0 | 0.00 | 0.00 | 0.00 | 46 | 1012.5 |
| 20260506142017 | 63 | 23 | 3.5 | 7.8 | 0.00 | 0.00 | 0.00 | 48 | 1012.6 |
| 20260506141019 | 62 | 45 | 4.3 | 9.6 | 0.00 | 0.00 | 0.00 | 48 | 1012.6 |
| 20260506140017 | 63 | 338 | 2.6 | 6.1 | 0.00 | 0.00 | 0.00 | 47 | 1012.5 |
| 20260506135017 | 64 | 23 | 2.6 | 6.1 | 0.00 | 0.00 | 0.00 | 44 | 1012.6 |
| 20260506134017 | 65 | 338 | 2.6 | 6.1 | 0.00 | 0.00 | 0.00 | 45 | 1012.5 |
| 20260506133019 | 64 | 338 | 4.3 | 8.7 | 0.00 | 0.00 | 0.00 | 43 | 1012.6 |
| 20260506132018 | 65 | 45 | 3.5 | 7.8 | 0.00 | 0.00 | 0.00 | 46 | 1012.6 |
| 20260506131018 | 65 | 23 | 3.5 | 8.7 | 0.00 | 0.00 | 0.00 | 45 | 1012.5 |
| 20260506130018 | 65 | 45 | 3.5 | 7.8 | 0.00 | 0.00 | 0.00 | 45 | 1012.6 |
| 20260506125037 | 65 | 338 | 2.6 | 5.2 | 0.00 | 0.00 | 0.00 | 45 | 1012.6 |
| 20260506124017 | 64 | 45 | 3.5 | 9.6 | 0.00 | 0.00 | 0.00 | 46 | 1012.6 |
| 20260506123019 | 65 | 23 | 5.2 | 13.9 | 0.00 | 0.00 | 0.00 | 43 | 1012.6 |
| 20260506122018 | 66 | 45 | 5.2 | 9.6 | 0.00 | 0.00 | 0.00 | 41 | 1012.7 |
| 20260506121017 | 66 | 0 | 4.3 | 9.6 | 0.00 | 0.00 | 0.00 | 42 | 1012.7 |
| 20260506120017 | 65 | 45 | 4.3 | 8.7 | 0.00 | 0.00 | 0.00 | 44 | 1012.7 |
| 20260506115018 | 65 | 0 | 3.5 | 7.8 | 0.00 | 0.00 | 0.00 | 45 | 1012.9 |
| 20260506114017 | 64 | 0 | 2.6 | 8.7 | 0.00 | 0.00 | 0.00 | 47 | 1012.9 |
| 20260506113038 | 65 | 338 | 4.3 | 8.7 | 0.00 | 0.00 | 0.00 | 47 | 1012.8 |
| 20260506112017 | 66 | 23 | 3.5 | 11.3 | 0.00 | 0.00 | 0.00 | 42 | 1012.8 |
| 20260506111017 | 66 | 0 | 4.3 | 11.3 | 0.00 | 0.00 | 0.00 | 42 | 1012.9 |
| 20260506110018 | 65 | 0 | 3.5 | 9.6 | 0.00 | 0.00 | 0.00 | 45 | 1012.9 |
| 20260506105017 | 64 | 23 | 2.6 | 6.1 | 0.00 | 0.00 | 0.00 | 48 | 1012.9 |
| 20260506104018 | 64 | 45 | 2.6 | 7.8 | 0.00 | 0.00 | 0.00 | 47 | 1013.0 |
| 20260506103018 | 63 | 45 | 4.3 | 8.7 | 0.00 | 0.00 | 0.00 | 48 | 1013.0 |
| 20260506102018 | 63 | 45 | 4.3 | 8.7 | 0.00 | 0.00 | 0.00 | 46 | 1013.0 |
| 20260506101038 | 63 | 0 | 4.3 | 8.7 | 0.00 | 0.00 | 0.00 | 47 | 1013.0 |